| time (UTC) | temp F | wind direction | speed MPH | gust MPH | rain 1hr in | rain 24hr in | rain mn in | humidity % | barometer mb |
| 20260507114006 | 57 | 124 | 5.0 | 13.0 | 0.00 | 0.00 | 0.00 | 60 | 1016.8 |
| 20260507113506 | 56 | 111 | 4.0 | 10.0 | 0.00 | 0.00 | 0.00 | 60 | 1016.9 |
| 20260507113006 | 56 | 129 | 3.0 | 11.0 | 0.00 | 0.00 | 0.00 | 60 | 1016.9 |
| 20260507112506 | 56 | 135 | 4.0 | 11.0 | 0.00 | 0.00 | 0.00 | 59 | 1016.9 |
| 20260507112006 | 56 | 141 | 4.0 | 10.0 | 0.00 | 0.00 | 0.00 | 61 | 1017.0 |
| 20260507111506 | 56 | 166 | 3.0 | 9.0 | 0.00 | 0.00 | 0.00 | 61 | 1016.9 |
| 20260507110505 | 56 | 124 | 4.0 | 8.0 | 0.00 | 0.00 | 0.00 | 57 | 1017.0 |
| 20260507110005 | 57 | 148 | 4.0 | 10.0 | 0.00 | 0.00 | 0.00 | 60 | 1017.0 |
| 20260507105006 | 56 | 177 | 4.0 | 9.0 | 0.00 | 0.00 | 0.00 | 62 | 1017.0 |
| 20260507104506 | 56 | 179 | 4.0 | 10.0 | 0.00 | 0.00 | 0.00 | 61 | 1016.9 |
| 20260507104006 | 55 | 166 | 4.0 | 10.0 | 0.00 | 0.00 | 0.00 | 61 | 1017.1 |
| 20260507103505 | 56 | 151 | 3.0 | 9.0 | 0.00 | 0.00 | 0.00 | 64 | 1017.0 |
| 20260507103005 | 55 | 120 | 4.0 | 8.0 | 0.00 | 0.00 | 0.00 | 63 | 1017.2 |
| 20260507102505 | 55 | 91 | 5.0 | 8.0 | 0.00 | 0.00 | 0.00 | 66 | 1017.1 |
| 20260507101507 | 55 | 136 | 5.0 | 13.0 | 0.00 | 0.00 | 0.00 | 65 | 1017.1 |
| 20260507101005 | 54 | 144 | 4.0 | 10.0 | 0.00 | 0.00 | 0.00 | 66 | 1017.2 |
| 20260507100506 | 54 | 139 | 4.0 | 10.0 | 0.00 | 0.00 | 0.00 | 66 | 1017.1 |
| 20260507100006 | 54 | 111 | 4.0 | 11.0 | 0.00 | 0.00 | 0.00 | 67 | 1017.2 |
| 20260507095506 | 54 | 108 | 5.0 | 11.0 | 0.00 | 0.00 | 0.00 | 67 | 1017.2 |
| 20260507095006 | 54 | 148 | 4.0 | 11.0 | 0.00 | 0.00 | 0.00 | 69 | 1017.2 |
| 20260507094505 | 54 | 156 | 4.0 | 11.0 | 0.00 | 0.00 | 0.00 | 67 | 1017.2 |
| 20260507093506 | 54 | 129 | 3.0 | 10.0 | 0.00 | 0.00 | 0.00 | 68 | 1017.1 |
| 20260507093006 | 54 | 110 | 3.0 | 8.0 | 0.00 | 0.00 | 0.00 | 69 | 1017.1 |
| 20260507092505 | 53 | 120 | 3.0 | 8.0 | 0.00 | 0.00 | 0.00 | 71 | 1017.1 |
| 20260507092006 | 53 | 122 | 3.0 | 8.0 | 0.00 | 0.00 | 0.00 | 71 | 1017.2 |
| 20260507091006 | 53 | 131 | 4.0 | 8.0 | 0.00 | 0.00 | 0.00 | 72 | 1017.2 |
| 20260507090505 | 53 | 138 | 3.0 | 8.0 | 0.00 | 0.00 | 0.00 | 71 | 1017.1 |
| 20260507090006 | 53 | 121 | 3.0 | 7.0 | 0.00 | 0.00 | 0.00 | 74 | 1017.2 |
| 20260507085506 | 52 | 117 | 3.0 | 8.0 | 0.00 | 0.00 | 0.00 | 74 | 1017.2 |
| 20260507085005 | 52 | 117 | 3.0 | 8.0 | 0.00 | 0.00 | 0.00 | 75 | 1017.1 |
| 20260507084505 | 51 | 125 | 3.0 | 8.0 | 0.00 | 0.00 | 0.00 | 75 | 1017.1 |
| 20260507083505 | 51 | 156 | 2.0 | 6.0 | 0.00 | 0.00 | 0.00 | 76 | 1017.2 |
| 20260507083006 | 51 | 120 | 2.0 | 7.0 | 0.00 | 0.00 | 0.00 | 78 | 1017.3 |
| 20260507082506 | 51 | 101 | 2.0 | 7.0 | 0.00 | 0.00 | 0.00 | 80 | 1017.4 |
| 20260507082005 | 50 | 112 | 2.0 | 5.0 | 0.00 | 0.00 | 0.00 | 79 | 1017.4 |
| 20260507081505 | 49 | 106 | 3.0 | 6.0 | 0.00 | 0.00 | 0.00 | 79 | 1017.3 |
| 20260507081005 | 49 | 101 | 3.0 | 6.0 | 0.00 | 0.00 | 0.00 | 80 | 1017.4 |
| 20260507080505 | 49 | 126 | 4.0 | 8.0 | 0.00 | 0.00 | 0.00 | 82 | 1017.3 |
| 20260507080006 | 48 | 165 | 4.0 | 8.0 | 0.00 | 0.00 | 0.00 | 83 | 1017.2 |
| 20260507075505 | 47 | 168 | 3.0 | 8.0 | 0.00 | 0.00 | 0.00 | 82 | 1017.2 |
| 20260507075005 | 47 | 152 | 4.0 | 8.0 | 0.00 | 0.00 | 0.00 | 82 | 1017.2 |
| 20260507074505 | 48 | 151 | 4.0 | 10.0 | 0.00 | 0.00 | 0.00 | 82 | 1017.1 |
| 20260507073505 | 48 | 161 | 3.0 | 8.0 | 0.00 | 0.00 | 0.00 | 82 | 1017.1 |
| 20260507073005 | 48 | 148 | 2.0 | 7.0 | 0.00 | 0.00 | 0.00 | 82 | 1017.0 |
| 20260507072505 | 48 | 132 | 2.0 | 7.0 | 0.00 | 0.00 | 0.00 | 82 | 1017.2 |
| 20260507071505 | 48 | 93 | 2.0 | 7.0 | 0.00 | 0.00 | 0.00 | 83 | 1017.0 |
| 20260507071005 | 48 | 93 | 2.0 | 4.0 | 0.00 | 0.00 | 0.00 | 82 | 1017.1 |
| 20260507070505 | 48 | 90 | 2.0 | 6.0 | 0.00 | 0.00 | 0.00 | 82 | 1017.1 |
| 20260507070009 | 48 | 87 | 2.0 | 6.0 | 0.00 | 0.00 | 0.00 | 83 | 1017.0 |
| 20260507065505 | 47 | 86 | 2.0 | 4.0 | 0.00 | 0.00 | 0.00 | 83 | 1017.0 |
| 20260507064505 | 47 | 86 | 2.0 | 5.0 | 0.00 | 0.00 | 0.00 | 83 | 1016.9 |
| 20260507063505 | 47 | 78 | 3.0 | 5.0 | 0.00 | 0.00 | 0.00 | 85 | 1016.9 |
| 20260507062505 | 46 | 83 | 3.0 | 7.0 | 0.00 | 0.00 | 0.00 | 85 | 1016.8 |
| 20260507062005 | 46 | 84 | 3.0 | 8.0 | 0.00 | 0.00 | 0.00 | 85 | 1016.8 |
| 20260507061505 | 46 | 82 | 3.0 | 8.0 | 0.00 | 0.00 | 0.00 | 85 | 1016.9 |
| 20260507061005 | 46 | 83 | 3.0 | 5.0 | 0.00 | 0.00 | 0.00 | 86 | 1016.6 |
| 20260507060505 | 45 | 79 | 2.0 | 7.0 | 0.00 | 0.00 | 0.00 | 86 | 1016.8 |
| 20260507055505 | 46 | 82 | 2.0 | 4.0 | 0.00 | 0.00 | 0.00 | 87 | 1016.7 |
| 20260507055005 | 45 | 82 | 1.0 | 4.0 | 0.00 | 0.00 | 0.00 | 87 | 1016.7 |
| 20260507054505 | 45 | 83 | 2.0 | 4.0 | 0.00 | 0.00 | 0.00 | 88 | 1016.7 |
| 20260507054005 | 45 | 83 | 2.0 | 3.0 | 0.00 | 0.00 | 0.00 | 88 | 1016.8 |
| 20260507053505 | 44 | 83 | 2.0 | 4.0 | 0.00 | 0.00 | 0.00 | 88 | 1016.7 |
| 20260507052505 | 44 | 83 | 2.0 | 4.0 | 0.00 | 0.00 | 0.00 | 89 | 1016.6 |
| 20260507051505 | 43 | 84 | 2.0 | 4.0 | 0.00 | 0.00 | 0.00 | 89 | 1016.5 |
| 20260507051005 | 43 | 77 | 2.0 | 4.0 | 0.00 | 0.00 | 0.00 | 89 | 1016.5 |
| 20260507050505 | 43 | 51 | 2.0 | 4.0 | 0.00 | 0.00 | 0.00 | 89 | 1016.6 |
| 20260507050006 | 43 | 27 | 2.0 | 4.0 | 0.00 | 0.00 | 0.00 | 89 | 1016.6 |
| 20260507045505 | 43 | 27 | 1.0 | 4.0 | 0.00 | 0.00 | 0.00 | 89 | 1016.5 |
| 20260507045005 | 43 | 27 | 1.0 | 3.0 | 0.00 | 0.00 | 0.00 | 89 | 1016.5 |
| 20260507044505 | 43 | 23 | 1.0 | 3.0 | 0.00 | 0.00 | 0.00 | 89 | 1016.4 |
| 20260507044005 | 43 | 22 | 1.0 | 3.0 | 0.00 | 0.00 | 0.00 | 89 | 1016.6 |
| 20260507043505 | 43 | 22 | 1.0 | 3.0 | 0.00 | 0.00 | 0.00 | 89 | 1016.5 |
| 20260507043005 | 43 | 22 | 1.0 | 2.0 | 0.00 | 0.00 | 0.00 | 89 | 1016.5 |
| 20260507042505 | 43 | 22 | 1.0 | 3.0 | 0.00 | 0.00 | 0.00 | 89 | 1016.5 |
| 20260507042005 | 43 | 22 | 2.0 | 3.0 | 0.00 | 0.00 | 0.00 | 89 | 1016.4 |
| 20260507041505 | 43 | 22 | 2.0 | 3.0 | 0.00 | 0.00 | 0.00 | 89 | 1016.5 |
| 20260507041005 | 43 | 22 | 2.0 | 3.0 | 0.00 | 0.00 | 0.00 | 89 | 1016.6 |
| 20260507040005 | 43 | 22 | 1.0 | 3.0 | 0.00 | 0.00 | 0.00 | 89 | 1016.6 |
| 20260507035505 | 43 | 22 | 1.0 | 3.0 | 0.00 | 0.00 | 0.00 | 89 | 1016.6 |
| 20260507035005 | 43 | 22 | 2.0 | 3.0 | 0.00 | 0.00 | 0.00 | 89 | 1016.6 |
| 20260507034505 | 43 | 22 | 2.0 | 3.0 | 0.00 | 0.00 | 0.00 | 89 | 1016.6 |
| 20260507034005 | 43 | 22 | 2.0 | 4.0 | 0.00 | 0.00 | 0.00 | 89 | 1016.6 |
| 20260507033505 | 43 | 22 | 3.0 | 4.0 | 0.00 | 0.00 | 0.00 | 89 | 1016.7 |
| 20260507033005 | 43 | 22 | 2.0 | 4.0 | 0.00 | 0.00 | 0.00 | 89 | 1016.6 |
| 20260507032504 | 43 | 22 | 2.0 | 4.0 | 0.00 | 0.00 | 0.00 | 89 | 1016.5 |
| 20260507032005 | 43 | 22 | 2.0 | 4.0 | 0.00 | 0.00 | 0.00 | 89 | 1016.6 |
| 20260507031505 | 43 | 22 | 2.0 | 3.0 | 0.00 | 0.00 | 0.00 | 89 | 1016.6 |
| 20260507031005 | 43 | 22 | 1.0 | 3.0 | 0.00 | 0.00 | 0.00 | 89 | 1016.6 |
| 20260507030505 | 43 | 22 | 1.0 | 3.0 | 0.00 | 0.00 | 0.00 | 89 | 1016.6 |
| 20260507030004 | 43 | 22 | 2.0 | 2.0 | 0.00 | 0.00 | 0.00 | 89 | 1016.6 |
| 20260507025005 | 43 | 22 | 1.0 | 3.0 | 0.00 | 0.00 | 0.00 | 89 | 1016.6 |
| 20260507024505 | 43 | 22 | 1.0 | 3.0 | 0.00 | 0.00 | 0.00 | 89 | 1016.6 |
| 20260507024004 | 43 | 22 | 1.0 | 2.0 | 0.00 | 0.00 | 0.00 | 89 | 1016.5 |
| 20260507023505 | 43 | 22 | 1.0 | 3.0 | 0.00 | 0.00 | 0.00 | 89 | 1016.7 |
| 20260507023005 | 43 | 22 | 2.0 | 3.0 | 0.00 | 0.00 | 0.00 | 89 | 1016.5 |
| 20260507022505 | 43 | 20 | 2.0 | 4.0 | 0.00 | 0.00 | 0.00 | 89 | 1016.5 |
| 20260507022004 | 43 | 343 | 2.0 | 4.0 | 0.00 | 0.00 | 0.00 | 89 | 1016.6 |
| 20260507021504 | 43 | 299 | 2.0 | 3.0 | 0.00 | 0.00 | 0.00 | 89 | 1016.5 |
| 20260507021004 | 42 | 299 | 2.0 | 3.0 | 0.00 | 0.00 | 0.00 | 89 | 1016.6 |
| 20260507020505 | 42 | 299 | 2.0 | 3.0 | 0.00 | 0.00 | 0.00 | 89 | 1016.7 |
| 20260507020005 | 42 | 299 | 2.0 | 3.0 | 0.00 | 0.00 | 0.00 | 89 | 1016.6 |
| 20260507015505 | 42 | 299 | 2.0 | 3.0 | 0.00 | 0.00 | 0.00 | 89 | 1016.6 |
| 20260507015004 | 42 | 302 | 3.0 | 4.0 | 0.00 | 0.00 | 0.00 | 89 | 1016.6 |
| 20260507014504 | 42 | 313 | 3.0 | 4.0 | 0.00 | 0.00 | 0.00 | 89 | 1016.5 |
| 20260507014004 | 42 | 322 | 2.0 | 4.0 | 0.00 | 0.00 | 0.00 | 88 | 1016.5 |
| 20260507013504 | 42 | 322 | 2.0 | 4.0 | 0.00 | 0.00 | 0.00 | 88 | 1016.4 |
| 20260507013004 | 42 | 322 | 3.0 | 5.0 | 0.00 | 0.00 | 0.00 | 88 | 1016.6 |
| 20260507012505 | 42 | 311 | 3.0 | 5.0 | 0.00 | 0.00 | 0.00 | 88 | 1016.5 |
| 20260507012005 | 42 | 301 | 2.0 | 5.0 | 0.00 | 0.00 | 0.00 | 88 | 1016.5 |
| 20260507011505 | 42 | 308 | 2.0 | 5.0 | 0.00 | 0.00 | 0.00 | 87 | 1016.6 |
| 20260507011005 | 42 | 318 | 2.0 | 4.0 | 0.00 | 0.00 | 0.00 | 88 | 1016.7 |
| 20260507010505 | 42 | 317 | 2.0 | 3.0 | 0.00 | 0.00 | 0.00 | 88 | 1016.7 |
| 20260507010005 | 43 | 317 | 2.0 | 3.0 | 0.00 | 0.00 | 0.00 | 88 | 1016.5 |
| 20260507005505 | 43 | 318 | 2.0 | 3.0 | 0.00 | 0.00 | 0.00 | 87 | 1016.6 |
| 20260507005004 | 43 | 317 | 3.0 | 4.0 | 0.00 | 0.00 | 0.00 | 87 | 1016.7 |
| 20260507004004 | 43 | 344 | 2.0 | 5.0 | 0.00 | 0.00 | 0.00 | 87 | 1016.7 |
| 20260507003505 | 43 | 56 | 3.0 | 6.0 | 0.00 | 0.00 | 0.00 | 87 | 1016.5 |
| 20260507003005 | 43 | 80 | 5.0 | 7.0 | 0.00 | 0.00 | 0.00 | 87 | 1016.4 |
| 20260507002505 | 43 | 90 | 6.0 | 11.0 | 0.00 | 0.00 | 0.00 | 87 | 1016.4 |
| 20260507002005 | 43 | 91 | 6.0 | 11.0 | 0.00 | 0.00 | 0.00 | 87 | 1016.4 |
| 20260507001504 | 43 | 92 | 7.0 | 13.0 | 0.00 | 0.00 | 0.00 | 87 | 1016.1 |
| 20260507000505 | 44 | 83 | 9.0 | 13.0 | 0.00 | 0.00 | 0.00 | 87 | 1016.3 |
| 20260507000005 | 43 | 81 | 8.0 | 13.0 | 0.00 | 0.00 | 0.00 | 87 | 1016.4 |
| 20260506235004 | 44 | 78 | 7.0 | 11.0 | 0.00 | 0.00 | 0.00 | 87 | 1016.4 |
| 20260506234505 | 44 | 80 | 7.0 | 11.0 | 0.00 | 0.00 | 0.00 | 87 | 1016.5 |
| 20260506234007 | 44 | 80 | 6.0 | 11.0 | 0.00 | 0.00 | 0.00 | 87 | 1016.5 |
| 20260506233508 | 44 | 78 | 5.0 | 11.0 | 0.00 | 0.00 | 0.00 | 87 | 1016.4 |
| 20260506233008 | 44 | 76 | 5.0 | 9.0 | 0.00 | 0.00 | 0.00 | 87 | 1016.4 |
| 20260506232507 | 44 | 77 | 5.0 | 10.0 | 0.00 | 0.00 | 0.00 | 87 | 1016.5 |
| 20260506232008 | 44 | 79 | 4.0 | 10.0 | 0.00 | 0.00 | 0.00 | 87 | 1016.6 |
| 20260506231507 | 43 | 69 | 4.0 | 7.0 | 0.00 | 0.00 | 0.00 | 87 | 1016.6 |
| 20260506231007 | 43 | 57 | 3.0 | 6.0 | 0.00 | 0.00 | 0.00 | 87 | 1016.6 |
| 20260506230009 | 43 | 35 | 3.0 | 4.0 | 0.00 | 0.00 | 0.00 | 87 | 1016.7 |
| 20260506224507 | 43 | 35 | 3.0 | 4.0 | 0.00 | 0.00 | 0.00 | 87 | 1016.7 |
| 20260506223507 | 43 | 40 | 3.0 | 5.0 | 0.00 | 0.00 | 0.00 | 86 | 1016.7 |
| 20260506223008 | 43 | 34 | 3.0 | 5.0 | 0.00 | 0.00 | 0.00 | 86 | 1016.7 |
| 20260506222508 | 43 | 30 | 3.0 | 5.0 | 0.00 | 0.00 | 0.00 | 86 | 1016.7 |
| 20260506222007 | 43 | 33 | 3.0 | 5.0 | 0.00 | 0.00 | 0.00 | 86 | 1016.7 |
| 20260506220507 | 43 | 38 | 5.0 | 10.0 | 0.00 | 0.00 | 0.00 | 86 | 1016.7 |
| 20260506220007 | 43 | 47 | 5.0 | 10.0 | 0.00 | 0.00 | 0.00 | 86 | 1016.7 |
| 20260506215507 | 43 | 57 | 5.0 | 7.0 | 0.00 | 0.00 | 0.00 | 86 | 1016.7 |
| 20260506215008 | 43 | 56 | 4.0 | 7.0 | 0.00 | 0.00 | 0.00 | 86 | 1016.6 |
| 20260506214507 | 44 | 51 | 4.0 | 7.0 | 0.00 | 0.00 | 0.00 | 86 | 1016.6 |
| 20260506213507 | 44 | 53 | 4.0 | 6.0 | 0.00 | 0.00 | 0.00 | 85 | 1016.7 |
| 20260506213007 | 44 | 60 | 4.0 | 7.0 | 0.00 | 0.00 | 0.00 | 85 | 1016.6 |
| 20260506212507 | 44 | 59 | 5.0 | 7.0 | 0.00 | 0.00 | 0.00 | 84 | 1016.6 |
| 20260506212007 | 44 | 65 | 5.0 | 9.0 | 0.00 | 0.00 | 0.00 | 84 | 1016.5 |
| 20260506211507 | 44 | 65 | 5.0 | 9.0 | 0.00 | 0.00 | 0.00 | 84 | 1016.5 |
| 20260506211007 | 44 | 63 | 5.0 | 9.0 | 0.00 | 0.00 | 0.00 | 84 | 1016.5 |
| 20260506210507 | 44 | 67 | 5.0 | 9.0 | 0.00 | 0.00 | 0.00 | 84 | 1016.4 |
| 20260506210007 | 44 | 64 | 5.0 | 11.0 | 0.00 | 0.00 | 0.00 | 84 | 1016.4 |
| 20260506205507 | 44 | 59 | 5.0 | 11.0 | 0.00 | 0.00 | 0.00 | 84 | 1016.3 |
| 20260506205007 | 44 | 52 | 6.0 | 9.0 | 0.00 | 0.00 | 0.00 | 84 | 1016.4 |
| 20260506204507 | 44 | 52 | 6.0 | 11.0 | 0.00 | 0.00 | 0.00 | 83 | 1016.3 |
| 20260506203507 | 44 | 52 | 6.0 | 10.0 | 0.00 | 0.00 | 0.00 | 83 | 1016.2 |
| 20260506203007 | 44 | 53 | 6.0 | 11.0 | 0.00 | 0.00 | 0.00 | 83 | 1016.1 |
| 20260506202507 | 44 | 57 | 6.0 | 11.0 | 0.00 | 0.00 | 0.00 | 83 | 1016.1 |
| 20260506202007 | 44 | 55 | 7.0 | 12.0 | 0.00 | 0.00 | 0.00 | 83 | 1016.1 |
| 20260506201507 | 44 | 46 | 7.0 | 12.0 | 0.00 | 0.00 | 0.00 | 83 | 1016.1 |
| 20260506200507 | 44 | 45 | 9.0 | 13.0 | 0.00 | 0.00 | 0.00 | 82 | 1016.0 |
| 20260506200007 | 44 | 51 | 8.0 | 14.0 | 0.00 | 0.00 | 0.00 | 82 | 1016.1 |
| 20260506195507 | 44 | 51 | 7.0 | 14.0 | 0.00 | 0.00 | 0.00 | 82 | 1016.0 |
| 20260506195006 | 44 | 51 | 6.0 | 13.0 | 0.00 | 0.00 | 0.00 | 82 | 1015.9 |
| 20260506194508 | 44 | 52 | 6.0 | 12.0 | 0.00 | 0.00 | 0.00 | 82 | 1015.9 |
| 20260506194007 | 44 | 51 | 7.0 | 13.0 | 0.00 | 0.00 | 0.00 | 82 | 1015.9 |
| 20260506193507 | 44 | 45 | 8.0 | 13.0 | 0.00 | 0.00 | 0.00 | 82 | 1015.9 |
| 20260506193007 | 45 | 45 | 8.0 | 12.0 | 0.00 | 0.00 | 0.00 | 82 | 1015.8 |
| 20260506192506 | 45 | 47 | 7.0 | 12.0 | 0.00 | 0.00 | 0.00 | 82 | 1015.8 |
| 20260506192007 | 45 | 46 | 6.0 | 12.0 | 0.00 | 0.00 | 0.00 | 82 | 1015.8 |
| 20260506191507 | 45 | 48 | 7.0 | 11.0 | 0.00 | 0.00 | 0.00 | 82 | 1015.8 |
| 20260506191007 | 45 | 56 | 7.0 | 12.0 | 0.00 | 0.00 | 0.00 | 81 | 1015.8 |
| 20260506190507 | 45 | 55 | 9.0 | 15.0 | 0.00 | 0.00 | 0.00 | 81 | 1015.8 |
| 20260506190007 | 45 | 49 | 9.0 | 16.0 | 0.00 | 0.00 | 0.00 | 81 | 1015.7 |
| 20260506185006 | 45 | 48 | 9.0 | 14.0 | 0.00 | 0.00 | 0.00 | 81 | 1015.8 |
| 20260506184507 | 45 | 40 | 9.0 | 14.0 | 0.00 | 0.00 | 0.00 | 81 | 1015.7 |
| 20260506184006 | 45 | 37 | 9.0 | 16.0 | 0.00 | 0.00 | 0.00 | 81 | 1015.7 |
| 20260506182507 | 45 | 34 | 9.0 | 15.0 | 0.00 | 0.00 | 0.00 | 81 | 1015.6 |
| 20260506182007 | 46 | 37 | 9.0 | 16.0 | 0.00 | 0.00 | 0.00 | 81 | 1015.5 |
| 20260506181507 | 46 | 38 | 9.0 | 16.0 | 0.00 | 0.00 | 0.00 | 81 | 1015.5 |
| 20260506181006 | 46 | 41 | 9.0 | 16.0 | 0.00 | 0.00 | 0.00 | 81 | 1015.5 |
| 20260506180507 | 46 | 39 | 9.0 | 14.0 | 0.00 | 0.00 | 0.00 | 80 | 1015.5 |
| 20260506180006 | 46 | 38 | 9.0 | 15.0 | 0.00 | 0.00 | 0.00 | 80 | 1015.5 |
| 20260506175507 | 46 | 37 | 9.0 | 16.0 | 0.00 | 0.00 | 0.00 | 80 | 1015.4 |
| 20260506175007 | 46 | 36 | 9.0 | 16.0 | 0.00 | 0.00 | 0.00 | 80 | 1015.4 |
| 20260506173508 | 46 | 42 | 11.0 | 16.0 | 0.00 | 0.00 | 0.00 | 79 | 1015.3 |
| 20260506172006 | 47 | 43 | 11.0 | 18.0 | 0.00 | 0.00 | 0.00 | 78 | 1015.2 |
| 20260506171507 | 47 | 38 | 10.0 | 17.0 | 0.00 | 0.00 | 0.00 | 77 | 1015.0 |
| 20260506170507 | 47 | 39 | 11.0 | 17.0 | 0.00 | 0.00 | 0.00 | 77 | 1015.1 |
| 20260506170006 | 48 | 42 | 10.0 | 17.0 | 0.00 | 0.00 | 0.00 | 76 | 1015.2 |
| 20260506165507 | 48 | 42 | 10.0 | 16.0 | 0.00 | 0.00 | 0.00 | 76 | 1015.0 |
| 20260506165006 | 48 | 44 | 10.0 | 16.0 | 0.00 | 0.00 | 0.00 | 75 | 1015.0 |
| 20260506164507 | 49 | 43 | 10.0 | 16.0 | 0.00 | 0.00 | 0.00 | 75 | 1014.9 |
| 20260506164006 | 49 | 40 | 10.0 | 17.0 | 0.00 | 0.00 | 0.00 | 74 | 1015.0 |
| 20260506163006 | 49 | 41 | 9.0 | 16.0 | 0.00 | 0.00 | 0.00 | 74 | 1014.9 |
| 20260506162507 | 49 | 46 | 9.0 | 14.0 | 0.00 | 0.00 | 0.00 | 73 | 1014.9 |
| 20260506162006 | 49 | 38 | 9.0 | 14.0 | 0.00 | 0.00 | 0.00 | 73 | 1014.9 |
| 20260506161506 | 49 | 37 | 9.0 | 15.0 | 0.00 | 0.00 | 0.00 | 72 | 1015.0 |
| 20260506160507 | 49 | 48 | 10.0 | 16.0 | 0.00 | 0.00 | 0.00 | 72 | 1014.9 |
| 20260506160007 | 49 | 50 | 9.0 | 16.0 | 0.00 | 0.00 | 0.00 | 72 | 1014.9 |
| 20260506155006 | 50 | 44 | 9.0 | 14.0 | 0.00 | 0.00 | 0.00 | 72 | 1014.9 |
| 20260506154506 | 50 | 38 | 10.0 | 13.0 | 0.00 | 0.00 | 0.00 | 72 | 1015.0 |
| 20260506154006 | 50 | 42 | 10.0 | 17.0 | 0.00 | 0.00 | 0.00 | 71 | 1014.9 |
| 20260506153506 | 50 | 33 | 9.0 | 17.0 | 0.00 | 0.00 | 0.00 | 71 | 1014.9 |
| 20260506153006 | 50 | 25 | 9.0 | 14.0 | 0.00 | 0.00 | 0.00 | 70 | 1014.9 |
| 20260506152506 | 50 | 36 | 10.0 | 14.0 | 0.00 | 0.00 | 0.00 | 70 | 1014.8 |
| 20260506152007 | 50 | 36 | 10.0 | 15.0 | 0.00 | 0.00 | 0.00 | 69 | 1014.9 |
| 20260506151006 | 50 | 28 | 9.0 | 15.0 | 0.00 | 0.00 | 0.00 | 68 | 1014.9 |
| 20260506150506 | 50 | 35 | 9.0 | 17.0 | 0.00 | 0.00 | 0.00 | 69 | 1014.8 |
| 20260506150007 | 50 | 35 | 10.0 | 17.0 | 0.00 | 0.00 | 0.00 | 68 | 1014.8 |
| 20260506145506 | 50 | 39 | 10.0 | 16.0 | 0.00 | 0.00 | 0.00 | 68 | 1014.8 |
| 20260506145006 | 50 | 45 | 10.0 | 16.0 | 0.00 | 0.00 | 0.00 | 67 | 1014.9 |
| 20260506144506 | 50 | 37 | 10.0 | 16.0 | 0.00 | 0.00 | 0.00 | 66 | 1014.7 |
| 20260506144006 | 51 | 28 | 11.0 | 14.0 | 0.00 | 0.00 | 0.00 | 66 | 1014.7 |
| 20260506143006 | 51 | 34 | 10.0 | 18.0 | 0.00 | 0.00 | 0.00 | 66 | 1014.7 |
| 20260506142506 | 51 | 48 | 9.0 | 17.0 | 0.00 | 0.00 | 0.00 | 65 | 1014.7 |
| 20260506142006 | 51 | 46 | 7.0 | 15.0 | 0.00 | 0.00 | 0.00 | 64 | 1014.7 |
| 20260506141506 | 52 | 32 | 7.0 | 13.0 | 0.00 | 0.00 | 0.00 | 62 | 1014.7 |
| 20260506141006 | 52 | 20 | 8.0 | 12.0 | 0.00 | 0.00 | 0.00 | 64 | 1014.7 |
| 20260506140506 | 52 | 14 | 8.0 | 13.0 | 0.00 | 0.00 | 0.00 | 63 | 1014.7 |
| 20260506140006 | 51 | 31 | 9.0 | 13.0 | 0.00 | 0.00 | 0.00 | 62 | 1014.9 |
| 20260506135506 | 51 | 44 | 9.0 | 15.0 | 0.00 | 0.00 | 0.00 | 63 | 1014.9 |
| 20260506135006 | 52 | 31 | 8.0 | 15.0 | 0.00 | 0.00 | 0.00 | 63 | 1014.7 |
| 20260506134506 | 52 | 17 | 8.0 | 15.0 | 0.00 | 0.00 | 0.00 | 64 | 1014.8 |
| 20260506134006 | 52 | 25 | 8.0 | 14.0 | 0.00 | 0.00 | 0.00 | 63 | 1014.9 |
| 20260506133506 | 52 | 20 | 8.0 | 14.0 | 0.00 | 0.00 | 0.00 | 63 | 1014.9 |
| 20260506133006 | 52 | 11 | 8.0 | 14.0 | 0.00 | 0.00 | 0.00 | 61 | 1014.8 |
| 20260506132506 | 52 | 20 | 8.0 | 14.0 | 0.00 | 0.00 | 0.00 | 62 | 1014.9 |
| 20260506132006 | 52 | 14 | 9.0 | 16.0 | 0.00 | 0.00 | 0.00 | 62 | 1014.9 |
| 20260506131506 | 52 | 10 | 9.0 | 16.0 | 0.00 | 0.00 | 0.00 | 60 | 1015.0 |
| 20260506131006 | 52 | 26 | 10.0 | 17.0 | 0.00 | 0.00 | 0.00 | 62 | 1015.0 |
| 20260506130506 | 51 | 24 | 11.0 | 17.0 | 0.00 | 0.00 | 0.00 | 61 | 1015.0 |
| 20260506130006 | 52 | 25 | 11.0 | 17.0 | 0.00 | 0.00 | 0.00 | 61 | 1015.0 |
| 20260506125505 | 52 | 31 | 11.0 | 18.0 | 0.00 | 0.00 | 0.00 | 62 | 1015.0 |
| 20260506125006 | 51 | 35 | 10.0 | 18.0 | 0.00 | 0.00 | 0.00 | 62 | 1015.0 |
| 20260506124506 | 52 | 34 | 9.0 | 17.0 | 0.00 | 0.00 | 0.00 | 62 | 1014.8 |
| 20260506124005 | 52 | 23 | 8.0 | 15.0 | 0.00 | 0.00 | 0.00 | 65 | 1014.9 |
| 20260506123506 | 52 | 12 | 9.0 | 14.0 | 0.00 | 0.00 | 0.00 | 64 | 1014.8 |
| 20260506123006 | 52 | 13 | 9.0 | 15.0 | 0.00 | 0.00 | 0.00 | 65 | 1014.9 |
| 20260506122506 | 52 | 14 | 9.0 | 15.0 | 0.00 | 0.00 | 0.00 | 65 | 1014.8 |
| 20260506122006 | 52 | 15 | 9.0 | 16.0 | 0.00 | 0.00 | 0.00 | 66 | 1014.7 |
| 20260506121506 | 51 | 24 | 8.0 | 17.0 | 0.00 | 0.00 | 0.00 | 65 | 1014.9 |
| 20260506121006 | 51 | 24 | 9.0 | 17.0 | 0.00 | 0.00 | 0.00 | 64 | 1015.0 |
| 20260506120505 | 51 | 31 | 9.0 | 15.0 | 0.00 | 0.00 | 0.00 | 66 | 1015.0 |
| 20260506120006 | 51 | 40 | 9.0 | 15.0 | 0.00 | 0.00 | 0.00 | 67 | 1014.9 |
| 20260506115006 | 50 | 31 | 9.0 | 16.0 | 0.00 | 0.00 | 0.00 | 67 | 1015.0 |